Location: Unspecified
(0.0000°N, 0.0000°E)
Time: 12:31:22
(UTC+00:00)

Vanguard 1 Rocket - Pass Details

Date: 08 December 2017
Orbit: 653 x 4224 km, 34.3° (Epoch: 18 June)

Event Time Altitude Azimuth Distance (km) Brightness Sun altitude
Rises 18:54:25 0° 301° (WNW) 5,256 11.8 -14.3°
Reaches altitude 10° 18:59:29 10° 320° (NW) 4,886 11.3 -15.5°
Maximum altitude 19:08:22 17° 357° (N) 5,234 11.0 -17.5°
Enters shadow 19:20:15 10° 32° (NNE) 6,789 11.3 -20.2°
Drops below altitude 10° 19:20:32 10° 33° (NNE) 6,829 - -20.3°
Sets 19:30:36 0° 50° (NE) 8,327 - -22.6°
